User: anonymous   Login
Location: Caltech
(34.1382°N, 118.1253°W)
Time: 00:16:26
(UTC-07:00)
Language:

NOSS 3-4 (C) - Orbit

View from above orbital plane
View from above orbital plane
View from above satellite
View from above satellite

Ground track
Ground track

The orbit data is extracted from the following two-line orbital elements,

1 31708U 07027C   16211.95366442 0.00000000  00000-0  00000-0 0    08
2 31708  63.4030 184.9699 0164000  26.0297 333.9703 13.40712073    06
Epoch (UTC): 29 July 2016 22:53:16
Eccentricity: 0.0164000
inclination: 63.4030°
perigee height: 984 km
apogee height: 1229 km
right ascension of ascending node: 184.9699°
argument of perigee: 26.0297°
revolutions per day: 13.40712073
mean anomaly at epoch: 333.9703°
orbit number at epoch: 0

The dashed part of the orbit path shows where the satellite is in the earth's shadow,  

DLR